This is the latest recevied weather packets stored in our database for station/object KM4LTG. If no packets are shown the sender has not sent any weather packets the latest 10 day(s).
| Time | Temp. | Humidity | Pressure | Rain* | Wind** | Luminosity | Snow |
|---|---|---|---|---|---|---|---|
| 1777580581 | 27.22° C | 71% | 1012.7 hPa | 0 mm | - | - | - |
| 1777580331 | 27.78° C | 69% | 1012.7 hPa | 0 mm | - | - | - |
| 1777580091 | 28.33° C | 69% | 1012.9 hPa | 0 mm | - | - | - |
| 1777579831 | 28.33° C | 69% | 1012.9 hPa | 0 mm | - | - | - |
| 1777579563 | 28.33° C | 70% | 1012.8 hPa | 0 mm | - | - | - |
| 1777579295 | 28.33° C | 70% | 1012.9 hPa | 0 mm | - | - | - |
| 1777579019 | 28.89° C | 68% | 1012.9 hPa | 0 mm | - | - | - |
| 1777578771 | 27.78° C | 72% | 1012.9 hPa | 0 mm | - | - | - |
| 1777578521 | 27.78° C | 69% | 1012.9 hPa | 0 mm | - | - | - |
| 1777578241 | 27.78° C | 70% | 1013.1 hPa | 0 mm | - | - | - |
| 1777577946 | 27.22° C | 72% | 1013.1 hPa | 0 mm | - | - | - |
| 1777577661 | 27.22° C | 72% | 1013.2 hPa | 0 mm | - | - | - |
| 1777577381 | 27.78° C | 70% | 1013.2 hPa | 0 mm | - | - | - |
| 1777577082 | 28.33° C | 69% | 1013.2 hPa | 0 mm | - | - | - |
| 1777576801 | 28.33° C | 70% | 1013.1 hPa | 0 mm | - | - | - |
| 1777576519 | 27.78° C | 69% | 1013.3 hPa | 0 mm | - | - | - |
| 1777576276 | 27.78° C | 69% | 1013.3 hPa | 0 mm | - | - | - |
| 1777575982 | 27.78° C | 70% | 1013.1 hPa | 0 mm | - | - | - |
| 1777575706 | 27.78° C | 68% | 1013.1 hPa | 0 mm | - | - | - |
| 1777575426 | 27.78° C | 68% | 1013.1 hPa | 0 mm | - | - | - |
| 1777575141 | 27.78° C | 68% | 1013.5 hPa | 0 mm | - | - | - |
| 1777574886 | 27.78° C | 69% | 1013.5 hPa | 0 mm | - | - | - |
| 1777574599 | 27.78° C | 67% | 1013.5 hPa | 0 mm | - | - | - |
| 1777574358 | 27.78° C | 71% | 1013.5 hPa | 0 mm | - | - | - |
| 1777574101 | 27.22° C | 72% | 1013.7 hPa | 0 mm | - | - | - |
* Rain latest hour (hover to see other rain measurements)
** Current wind speed in m/s (hover to see current wind gust speed)